sat.trackr.live / text

‹ back to catalog

STARLINK-5036

NORAD 53917 · 2022-119AH

PAYLOAD ACTIVE UNKNOWN

§ Identity

Operator
Country
US
Launch date
2022-09-24
Launch site
AFETR
Launch vehicle
Mass (kg)
RCS (m²)

Purposes: comms

External: N2YO · Heavens-Above · Gunter

§ Orbital elements

Epoch: 2026-09-20T23:08:55.236480Z

Period
94.33 min
Inclination
53.1604°
Eccentricity
0.0001301
Mean motion
15.26519921 rev/d
Perigee alt
485.3 km
Apogee alt
487.1 km
Semi-major
6,864.4 km
B*
2.3650e-5
RAAN
121.4310°
Arg perigee
98.3097°
Mean anomaly
261.8050°
Rev number
22,181

§ Raw data

STARLINK-50361 53917U 22119AH  26263.96452820  .00000281  00000+0  23650-4 0  99952 53917  53.1604 121.4310 0001301  98.3097 261.8050 15.26519921221816

JSON: /api/v1/satellites/53917 · /tle

For live sub-satellite position, see the globe view (requires WebGL).

§ Visibility from observer

Set your observer location to see the next 7 days of passes ≥ 10°. The values pass through the URL so the page stays shareable.

No JS? Fill the form by hand. The geolocation button needs JavaScript.